This demonstration page uses our WeatherBlox Daily Observations layout. Learn more.

Left ArrowRight Arrow

39.08367, -84.50855

Hourly Observations for April 13, 2017

Temp ( °F °C ) Dew Point ( °F °C ) Humidity (%) Winds ( mph kmh ) Pressure ( in mb ) Visibility ( mi km ) Precip ( " mm )
12:53 am 00:53 Clear 48 8.9 48 8.9 100 100 N N/A 30.36 1028 10 16 N/A
1:53 am 01:53 Clear 47 8.3 47 8.3 100 100 N 3 6 30.36 1028 10 16 N/A
2:53 am 02:53 Clear 45 7.2 45 7.2 100 100 N N/A 30.34 1028 9 14 N/A
3:17 am 03:17 Clear with Mist and Fog 43 6.1 43 6.1 100 100 SE 3 6 30.33 1027 2 3 N/A
3:26 am 03:26 Clear with Mist and Fog 45 7 45 7 100 100 N N/A 30.33 1027 4 6 N/A
3:33 am 03:33 Clear with Mist and Fog 43 6.1 43 6.1 100 100 N N/A 30.33 1027 2 3 N/A
3:53 am 03:53 Clear with Mist and Fog 44 6.7 44 6.7 100 100 N N/A 30.33 1027 4 6 N/A
4:10 am 04:10 Clear with Mist and Fog 46 8 46 8 100 100 N N/A 30.33 1027 2 3 N/A
4:20 am 04:20 Clear with Mist and Fog 43 6 43 6 100 100 N N/A 30.33 1027 6 10 N/A
4:46 am 04:46 Clear with Mist and Fog 43 6.1 43 6.1 100 100 N N/A 30.33 1027 2 3 N/A
4:53 am 04:53 Clear with Mist and Fog 44 6.7 44 6.7 100 100 N N/A 30.33 1027 2 2 N/A
4:57 am 04:57 Clear with Mist and Fog 44 6.7 44 6.7 100 100 N N/A 30.33 1027 3 5 N/A
5:10 am 05:10 Clear with Mist and Fog 45 7 45 7 100 100 N N/A 30.33 1027 2 3 N/A
5:21 am 05:21 Clear with Mist and Fog 43 6.1 43 6.1 100 100 N N/A 30.33 1027 1 1 N/A
5:30 am 05:30 Clear with Mist and Fog 43 6 43 6 100 100 N N/A 30.33 1027 1 2 N/A
5:38 am 05:38 Clear with Mist and Fog 43 6 43 6 100 100 N N/A 30.33 1027 3 5 N/A
5:48 am 05:48 Clear with Mist and Fog 43 6 43 6 100 100 N N/A 30.33 1027 2 2 N/A
5:53 am 05:53 Clear with Mist and Fog 43 6.1 43 6.1 100 100 N N/A 30.34 1027 1 1 N/A
5:59 am 05:59 Clear with Mist and Fog 42 5.6 42 5.6 100 100 N N/A 30.33 1027 2 3 N/A
6:08 am 06:08 Clear with Mist and Fog 42 5.6 42 5.6 100 100 N N/A 30.33 1027 1 1 N/A
6:24 am 06:24 Clear with Mist and Fog 43 6 43 6 100 100 N N/A 30.33 1027 1 2 N/A
6:32 am 06:32 Clear with Mist and Fog 43 6 43 6 100 100 N N/A 30.36 1028 4 6 N/A
6:53 am 06:53 Clear 42 5.6 42 5.6 100 100 N N/A 30.35 1028 10 16 N/A
7:53 am 07:53 Sunny 43 6.1 43 6.1 100 100 N N/A 30.37 1029 10 16 N/A
8:53 am 08:53 Sunny 49 9.4 47 8.3 93 93 N N/A 30.37 1029 10 16 N/A
9:53 am 09:53 Sunny 56 13.3 46 7.8 70 70 N N/A 30.36 1028 10 16 N/A
10:53 am 10:53 Sunny 64 17.8 50 10 60 60 N N/A 30.36 1028 10 16 N/A
11:53 am 11:53 Sunny 68 20 45 7.2 44 44 VRB 3 6 30.35 1028 10 16 N/A
12:53 pm 12:53 Sunny 71 21.7 47 8.3 42 42 S 8 13 30.32 1027 10 16 N/A
1:53 pm 13:53 Sunny 73 22.8 45 7.2 37 37 ESE 12 19 30.29 1026 10 16 N/A
2:53 pm 14:53 Sunny 75 23.9 46 7.8 36 36 VRB 5 7 30.27 1025 10 16 N/A
3:53 pm 15:53 Sunny 75 23.9 44 6.7 33 33 N N/A 30.24 1024 10 16 N/A
4:53 pm 16:53 Sunny 77 25 44 6.7 31 31 VRB 3 6 30.22 1023 10 16 N/A
5:53 pm 17:53 Mostly Sunny 74 23.3 47 8.3 38 38 VRB 5 7 30.20 1023 10 16 N/A
6:53 pm 18:53 Sunny 75 23.9 44 6.7 33 33 E 7 11 30.20 1023 10 16 N/A
7:53 pm 19:53 Mostly Sunny 72 22.2 43 6.1 35 35 ESE 5 7 30.20 1023 10 16 N/A
8:53 pm 20:53 Clear 62 16.7 51 10.6 67 67 N N/A 30.22 1023 10 16 N/A
9:53 pm 21:53 Partly Cloudy 57 13.9 51 10.6 81 81 N N/A 30.23 1024 10 16 N/A
10:53 pm 22:53 Mostly Clear 56 13.3 50 10 81 81 N N/A 30.23 1024 10 16 N/A
11:53 pm 23:53 Clear 54 12.2 50 10 87 87 N N/A 30.23 1024 10 16 N/A

Powered by AerisWeather